Time,TemperatureF,DewpointF,PressureIn,WindDirection,WindDirectionDegrees,WindSpeedMPH,WindSpeedGustMPH,Humidity,HourlyPrecipIn,Conditions,Clouds,dailyrainin,SoftwareType,DateUTC
2014-01-08 00:02:00,-9.0,-17.0,30.24,North,-999,-999.0,-999.0,69,-99.99,,,-99.99,,2014-01-08 06:02:00,
2014-01-08 00:22:00,-8.0,-17.0,30.24,North,-999,-999.0,-999.0,63,-99.99,,,-99.99,,2014-01-08 06:22:00,
2014-01-08 00:43:00,-9.0,-17.0,30.25,North,-999,-999.0,-999.0,69,-99.99,,,-99.99,,2014-01-08 06:43:00,
2014-01-08 00:52:00,-9.0,-18.0,30.25,North,-999,-999.0,-999.0,63,-99.99,,,-99.99,,2014-01-08 06:52:00,
2014-01-08 01:02:00,-9.0,-18.0,30.25,North,-999,-999.0,-999.0,63,-99.99,,,-99.99,,2014-01-08 07:02:00,
2014-01-08 01:22:00,-11.0,-18.0,30.25,North,-999,-999.0,-999.0,69,-99.99,,,-99.99,,2014-01-08 07:22:00,
2014-01-08 01:42:00,-9.0,-18.0,30.26,North,-999,-999.0,-999.0,63,-99.99,,,-99.99,,2014-01-08 07:42:00,
2014-01-08 02:43:00,-11.0,-20.0,30.28,North,-999,-999.0,-999.0,63,-99.99,,,-99.99,,2014-01-08 08:43:00,
2014-01-08 03:22:00,-13.0,-22.0,30.29,North,-999,-999.0,-999.0,63,-99.99,,,-99.99,,2014-01-08 09:22:00,
2014-01-08 04:23:00,-15.0,-24.0,30.29,North,-999,-999.0,-999.0,62,-99.99,,,-99.99,,2014-01-08 10:23:00,
2014-01-08 04:43:00,-15.0,-24.0,30.30,North,-999,-999.0,-999.0,62,-99.99,,,-99.99,,2014-01-08 10:43:00,
2014-01-08 05:23:00,-15.0,-24.0,30.30,North,-999,-999.0,-999.0,62,-99.99,,,-99.99,,2014-01-08 11:23:00,
2014-01-08 05:42:00,-15.0,-24.0,30.29,North,-999,-999.0,-999.0,62,-99.99,,,-99.99,,2014-01-08 11:42:00,
2014-01-08 05:53:00,-15.0,-24.0,30.29,North,-999,-999.0,-999.0,62,-99.99,,,-99.99,,2014-01-08 11:53:00,
2014-01-08 06:02:00,-15.0,-24.0,30.29,North,-999,-999.0,-999.0,62,-99.99,,,-99.99,,2014-01-08 12:02:00,
2014-01-08 06:22:00,-17.0,-26.0,30.30,North,-999,-999.0,-999.0,62,-99.99,,,-99.99,,2014-01-08 12:22:00,
2014-01-08 06:43:00,-17.0,-26.0,30.30,North,-999,-999.0,-999.0,62,-99.99,,,-99.99,,2014-01-08 12:43:00,
2014-01-08 07:42:00,-17.0,-26.0,30.31,North,-999,-999.0,-999.0,62,-99.99,,,-99.99,,2014-01-08 13:42:00,
2014-01-08 08:11:00,-15.0,-24.0,30.32,North,-999,-999.0,-999.0,62,-99.99,,,-99.99,,2014-01-08 14:11:00,
2014-01-08 08:22:00,-15.0,-24.0,30.32,North,-999,-999.0,-999.0,62,-99.99,,,-99.99,,2014-01-08 14:22:00,
2014-01-08 08:42:00,-15.0,-24.0,30.34,North,-999,-999.0,-999.0,62,-99.99,,,-99.99,,2014-01-08 14:42:00,
2014-01-08 09:12:00,-15.0,-24.0,30.35,North,-999,-999.0,-999.0,62,-99.99,,,-99.99,,2014-01-08 15:12:00,
2014-01-08 09:22:00,-15.0,-24.0,30.35,North,-999,-999.0,-999.0,62,-99.99,,,-99.99,,2014-01-08 15:22:00,
2014-01-08 09:43:00,-15.0,-24.0,30.38,North,-999,-999.0,-999.0,62,-99.99,,,-99.99,,2014-01-08 15:43:00,
2014-01-08 10:23:00,-9.0,-18.0,30.39,North,-999,-999.0,-999.0,63,-99.99,,,-99.99,,2014-01-08 16:23:00,
2014-01-08 10:43:00,-8.0,-17.0,30.40,North,-999,-999.0,-999.0,63,-99.99,,,-99.99,,2014-01-08 16:43:00,
2014-01-08 11:23:00,-6.0,-15.0,30.41,North,-999,-999.0,-999.0,64,-99.99,,,-99.99,,2014-01-08 17:23:00,
2014-01-08 11:42:00,-6.0,-15.0,30.41,North,-999,-999.0,-999.0,64,-99.99,,,-99.99,,2014-01-08 17:42:00,
2014-01-08 12:22:00,-6.0,-13.0,30.41,North,-999,-999.0,-999.0,70,-99.99,,,-99.99,,2014-01-08 18:22:00,
2014-01-08 12:42:00,-4.0,-11.0,30.40,North,-999,-999.0,-999.0,70,-99.99,,,-99.99,,2014-01-08 18:42:00,
2014-01-08 13:22:00,-2.0,-9.0,30.38,North,-999,-999.0,-999.0,70,-99.99,,,-99.99,,2014-01-08 19:22:00,
2014-01-08 13:42:00,0.0,-9.0,30.38,North,-999,-999.0,-999.0,64,-99.99,,,-99.99,,2014-01-08 19:42:00,
2014-01-08 14:22:00,0.0,-9.0,30.38,North,-999,-999.0,-999.0,64,-99.99,,,-99.99,,2014-01-08 20:22:00,
2014-01-08 14:42:00,0.0,-11.0,30.38,North,-999,-999.0,-999.0,59,-99.99,,,-99.99,,2014-01-08 20:42:00,
2014-01-08 14:52:00,0.0,-9.0,30.38,North,-999,-999.0,-999.0,64,-99.99,,,-99.99,,2014-01-08 20:52:00,
2014-01-08 15:02:00,0.0,-9.0,30.38,North,-999,-999.0,-999.0,64,-99.99,,,-99.99,,2014-01-08 21:02:00,
2014-01-08 15:12:00,0.0,-9.0,30.38,North,-999,-999.0,-999.0,64,-99.99,,,-99.99,,2014-01-08 21:12:00,
2014-01-08 15:22:00,0.0,-9.0,30.38,North,-999,-999.0,-999.0,64,-99.99,,,-99.99,,2014-01-08 21:22:00,
2014-01-08 15:43:00,0.0,-9.0,30.38,North,-999,-999.0,-999.0,64,-99.99,,,-99.99,,2014-01-08 21:43:00,
2014-01-08 16:13:00,0.0,-9.0,30.38,North,-999,-999.0,-999.0,64,-99.99,,,-99.99,,2014-01-08 22:13:00,
2014-01-08 16:23:00,0.0,-9.0,30.38,North,-999,-999.0,-999.0,64,-99.99,,,-99.99,,2014-01-08 22:23:00,
2014-01-08 16:43:00,-2.0,-11.0,30.37,North,-999,-999.0,-999.0,64,-99.99,,,-99.99,,2014-01-08 22:43:00,
2014-01-08 17:12:00,-2.0,-11.0,30.37,North,-999,-999.0,-999.0,64,-99.99,,,-99.99,,2014-01-08 23:12:00,
2014-01-08 17:22:00,-2.0,-11.0,30.37,North,-999,-999.0,-999.0,64,-99.99,,,-99.99,,2014-01-08 23:22:00,
2014-01-08 17:42:00,-2.0,-11.0,30.36,North,-999,-999.0,-999.0,64,-99.99,,,-99.99,,2014-01-08 23:42:00,
2014-01-08 18:21:00,-2.0,-9.0,30.34,North,-999,-999.0,-999.0,70,-99.99,,,-99.99,,2014-01-09 00:21:00,
2014-01-08 18:42:00,0.0,-9.0,30.35,North,-999,-999.0,-999.0,64,-99.99,,,-99.99,,2014-01-09 00:42:00,
2014-01-08 19:11:00,0.0,-9.0,30.34,North,-999,-999.0,-999.0,64,-99.99,,,-99.99,,2014-01-09 01:11:00,
2014-01-08 19:21:00,0.0,-9.0,30.34,North,-999,-999.0,-999.0,64,-99.99,,,-99.99,,2014-01-09 01:21:00,
2014-01-08 19:42:00,0.0,-9.0,30.33,North,-999,-999.0,-999.0,64,-99.99,,,-99.99,,2014-01-09 01:42:00,
2014-01-08 20:22:00,1.0,-8.0,30.32,North,-999,-999.0,-999.0,65,-99.99,,,-99.99,,2014-01-09 02:22:00,
2014-01-08 21:21:00,1.0,-6.0,30.31,North,-999,-999.0,-999.0,71,-99.99,,,-99.99,,2014-01-09 03:21:00,
2014-01-08 21:43:00,1.0,-6.0,30.30,North,-999,-999.0,-999.0,71,-99.99,,,-99.99,,2014-01-09 03:43:00,
2014-01-08 22:23:00,3.0,-4.0,30.29,North,-999,-999.0,-999.0,71,-99.99,,,-99.99,,2014-01-09 04:23:00,
2014-01-08 22:43:00,3.0,-2.0,30.28,North,-999,-999.0,-999.0,77,-99.99,,,-99.99,,2014-01-09 04:43:00,
2014-01-08 23:22:00,5.0,-2.0,30.26,North,-999,-999.0,-999.0,71,-99.99,,,-99.99,,2014-01-09 05:22:00,
2014-01-08 23:43:00,7.0,-2.0,30.25,North,-999,-999.0,-999.0,65,-99.99,,,-99.99,,2014-01-09 05:43:00,